Track STARLINK-1751 now! 10-day predictions STARLINK-1751 is classified as:
1 46378U 20062BF 21027.25001157 -.00979437 00000-0 -32943-1 0 9994 2 46378 52.9965 76.1366 0001321 70.2402 238.8586 15.32845717 23623